Time,TemperatureF,DewpointF,PressureIn,WindDirection,WindDirectionDegrees,WindSpeedMPH,WindSpeedGustMPH,Humidity,HourlyPrecipIn,Conditions,Clouds,dailyrainin,SoftwareType,DateUTC
2013-05-19 00:01:00,58.6,54.5,29.47,SSE,158,0.9,0.9,86,0.00,,CLR,0.00,VWS V14.01,2013-05-19 07:01:00,
2013-05-19 00:06:00,58.5,54.3,29.47,SSE,158,0.9,0.9,86,0.00,,CLR,0.00,VWS V14.01,2013-05-19 07:06:00,
2013-05-19 00:11:00,58.3,54.1,29.47,SSE,158,0.9,0.9,86,0.00,,CLR,0.00,VWS V14.01,2013-05-19 07:11:00,
2013-05-19 00:16:00,58.3,54.4,29.47,SSE,158,0.9,0.9,87,0.00,,CLR,0.00,VWS V14.01,2013-05-19 07:16:00,
2013-05-19 00:21:00,58.1,54.3,29.47,SSE,158,0.9,0.9,87,0.00,,CLR,0.00,VWS V14.01,2013-05-19 07:21:00,
2013-05-19 00:26:00,58.1,54.6,29.47,SSE,158,0.9,0.9,88,0.00,,CLR,0.00,VWS V14.01,2013-05-19 07:26:00,
2013-05-19 00:31:00,58.5,54.9,29.47,SSE,158,0.9,0.9,88,0.00,,CLR,0.00,VWS V14.01,2013-05-19 07:31:00,
2013-05-19 00:36:00,58.6,55.4,29.47,SSE,158,0.9,0.9,89,0.00,,CLR,0.00,VWS V14.01,2013-05-19 07:36:00,
2013-05-19 00:41:00,58.8,55.6,29.47,SSE,158,0.9,0.9,89,0.00,,CLR,0.00,VWS V14.01,2013-05-19 07:41:00,
2013-05-19 00:46:00,58.8,55.6,29.47,SSE,158,0.9,0.9,89,0.00,,CLR,0.00,VWS V14.01,2013-05-19 07:46:00,
2013-05-19 00:52:00,58.8,55.6,29.47,SSE,158,0.9,0.9,89,0.00,,CLR,0.00,VWS V14.01,2013-05-19 07:52:00,
2013-05-19 00:57:00,58.8,55.6,29.47,SSE,158,0.9,0.9,89,0.00,,CLR,0.00,VWS V14.01,2013-05-19 07:57:00,
2013-05-19 01:02:00,58.8,55.6,29.47,SSE,158,0.9,0.9,89,0.00,,CLR,0.00,VWS V14.01,2013-05-19 08:02:00,
2013-05-19 01:07:00,59.0,55.8,29.47,SSE,158,0.9,0.9,89,0.00,,CLR,0.00,VWS V14.01,2013-05-19 08:07:00,
2013-05-19 01:12:00,59.2,56.0,29.47,SSE,158,0.9,0.9,89,0.00,,CLR,0.00,VWS V14.01,2013-05-19 08:12:00,
2013-05-19 01:16:00,59.4,56.1,29.47,SSE,158,0.9,0.9,89,0.00,,CLR,0.00,VWS V14.01,2013-05-19 08:16:00,
2013-05-19 01:22:00,59.5,56.3,29.47,SSE,158,0.9,0.9,89,0.00,,CLR,0.00,VWS V14.01,2013-05-19 08:22:00,
2013-05-19 01:27:00,59.5,56.3,29.47,SSE,158,0.9,0.9,89,0.00,,CLR,0.00,VWS V14.01,2013-05-19 08:27:00,
2013-05-19 01:32:00,59.4,56.1,29.47,SSE,158,0.9,0.9,89,0.00,,CLR,0.00,VWS V14.01,2013-05-19 08:32:00,
2013-05-19 01:37:00,59.2,55.6,29.47,SSE,158,0.9,0.9,88,0.00,,CLR,0.00,VWS V14.01,2013-05-19 08:37:00,
2013-05-19 01:42:00,59.0,55.5,29.47,SSE,158,0.9,0.9,88,0.00,,CLR,0.00,VWS V14.01,2013-05-19 08:42:00,
2013-05-19 01:47:00,58.8,55.6,29.47,SSE,158,0.9,0.9,89,0.00,,CLR,0.00,VWS V14.01,2013-05-19 08:47:00,
2013-05-19 01:52:00,58.8,55.6,29.47,SSE,158,0.9,0.9,89,0.00,,CLR,0.00,VWS V14.01,2013-05-19 08:52:00,
2013-05-19 01:57:00,59.0,55.8,29.47,SSE,158,0.9,0.9,89,0.00,,CLR,0.00,VWS V14.01,2013-05-19 08:57:00,
2013-05-19 02:02:00,59.0,55.8,29.47,SSE,158,0.9,0.9,89,0.00,,SCT015,0.00,VWS V14.01,2013-05-19 09:02:00,
2013-05-19 02:07:00,58.8,55.6,29.47,SSE,158,0.9,0.9,89,0.00,,SCT015,0.00,VWS V14.01,2013-05-19 09:07:00,
2013-05-19 02:12:00,58.6,55.4,29.47,SSE,158,0.9,0.9,89,0.00,,SCT015,0.00,VWS V14.01,2013-05-19 09:12:00,
2013-05-19 02:17:00,58.5,55.5,29.47,SSE,158,0.9,0.9,90,0.00,,BKN013,0.00,VWS V14.01,2013-05-19 09:17:00,
2013-05-19 02:22:00,58.5,55.8,29.47,SSE,158,0.9,0.9,91,0.00,,BKN013,0.00,VWS V14.01,2013-05-19 09:22:00,
2013-05-19 02:27:00,58.6,56.0,29.47,SSE,158,0.9,0.9,91,0.00,,BKN013,0.00,VWS V14.01,2013-05-19 09:27:00,
2013-05-19 02:32:00,58.6,56.0,29.47,SSE,158,0.9,0.9,91,0.00,,BKN013,0.00,VWS V14.01,2013-05-19 09:32:00,
2013-05-19 02:37:00,58.6,56.0,29.47,SSE,158,0.9,0.9,91,0.00,,BKN013,0.00,VWS V14.01,2013-05-19 09:37:00,
2013-05-19 02:42:00,58.5,55.8,29.47,SSE,158,0.9,0.9,91,0.00,,BKN013,0.00,VWS V14.01,2013-05-19 09:42:00,
2013-05-19 02:47:00,58.1,55.2,29.47,SSE,158,0.9,0.9,90,0.00,,OVC015,0.00,VWS V14.01,2013-05-19 09:47:00,
2013-05-19 02:52:00,57.9,55.0,29.47,SSE,158,0.9,0.9,90,0.00,,OVC015,0.00,VWS V14.01,2013-05-19 09:52:00,
2013-05-19 02:57:00,57.7,54.8,29.47,SSE,158,0.9,0.9,90,0.00,,OVC015,0.00,VWS V14.01,2013-05-19 09:57:00,
2013-05-19 03:02:00,57.6,54.7,29.47,SSE,158,0.9,0.9,90,0.00,,BKN015,0.00,VWS V14.01,2013-05-19 10:02:00,
2013-05-19 03:07:00,57.2,54.3,29.47,SSE,158,0.9,0.9,90,0.00,,BKN015,0.00,VWS V14.01,2013-05-19 10:07:00,
2013-05-19 03:12:00,57.2,54.6,29.47,SSE,158,0.9,0.9,91,0.00,,BKN015,0.00,VWS V14.01,2013-05-19 10:12:00,
2013-05-19 03:17:00,57.2,54.6,29.47,SSE,158,0.9,0.9,91,0.00,,BKN015,0.00,VWS V14.01,2013-05-19 10:17:00,
2013-05-19 03:22:00,57.2,54.6,29.47,SSE,158,0.9,0.9,91,0.00,,BKN015,0.00,VWS V14.01,2013-05-19 10:22:00,
2013-05-19 03:27:00,57.2,54.9,29.47,SSE,158,0.9,0.9,92,0.00,,BKN015,0.00,VWS V14.01,2013-05-19 10:27:00,
2013-05-19 03:32:00,57.4,55.1,29.47,SSE,158,0.9,0.9,92,0.00,,BKN015,0.00,VWS V14.01,2013-05-19 10:32:00,
2013-05-19 03:37:00,57.6,55.3,29.47,SSE,158,0.9,0.9,92,0.00,,BKN015,0.00,VWS V14.01,2013-05-19 10:37:00,
2013-05-19 03:42:00,57.6,55.3,29.47,SSE,158,0.9,0.9,92,0.00,,BKN015,0.00,VWS V14.01,2013-05-19 10:42:00,
2013-05-19 03:47:00,57.4,55.1,29.47,SSE,158,0.9,0.9,92,0.00,,BKN015,0.00,VWS V14.01,2013-05-19 10:47:00,
2013-05-19 03:52:00,57.4,55.1,29.47,SSE,158,0.9,0.9,92,0.00,,BKN015,0.00,VWS V14.01,2013-05-19 10:52:00,
2013-05-19 03:57:00,57.4,55.1,29.47,SSE,158,0.9,0.9,92,0.00,,BKN015,0.00,VWS V14.01,2013-05-19 10:57:00,
2013-05-19 04:02:00,57.2,54.9,29.47,SSE,158,0.9,0.9,92,0.00,,OVC015,0.00,VWS V14.01,2013-05-19 11:02:00,
2013-05-19 04:07:00,57.0,54.7,29.47,SSE,158,0.9,0.9,92,0.00,,OVC015,0.00,VWS V14.01,2013-05-19 11:07:00,
2013-05-19 04:12:00,56.8,54.5,29.47,SSE,158,0.9,0.9,92,0.00,,OVC015,0.00,VWS V14.01,2013-05-19 11:12:00,
2013-05-19 04:17:00,56.8,54.5,29.47,SSE,158,0.9,0.9,92,0.00,,OVC015,0.00,VWS V14.01,2013-05-19 11:17:00,
2013-05-19 04:22:00,56.8,54.8,29.47,SSE,158,0.9,0.9,93,0.00,,OVC015,0.00,VWS V14.01,2013-05-19 11:22:00,
2013-05-19 04:27:00,56.8,54.8,29.47,SSE,158,0.9,0.9,93,0.00,,OVC015,0.00,VWS V14.01,2013-05-19 11:27:00,
2013-05-19 04:32:00,57.0,55.0,29.47,SSE,158,0.9,0.9,93,0.00,,OVC015,0.00,VWS V14.01,2013-05-19 11:32:00,
2013-05-19 04:37:00,57.2,55.2,29.47,SSE,158,0.9,0.9,93,0.00,,OVC015,0.00,VWS V14.01,2013-05-19 11:37:00,
2013-05-19 04:42:00,57.2,54.9,29.47,SSE,158,0.9,0.9,92,0.00,,OVC015,0.00,VWS V14.01,2013-05-19 11:42:00,
2013-05-19 04:47:00,57.2,54.9,29.47,SSE,158,0.9,0.9,92,0.00,,OVC015,0.00,VWS V14.01,2013-05-19 11:47:00,
2013-05-19 04:52:00,57.2,55.2,29.47,SSE,158,0.9,0.9,93,0.00,,OVC015,0.00,VWS V14.01,2013-05-19 11:52:00,
2013-05-19 04:57:00,57.4,55.1,29.47,SSE,158,0.9,0.9,92,0.00,,OVC015,0.00,VWS V14.01,2013-05-19 11:57:00,
2013-05-19 05:02:00,57.6,55.3,29.47,SSE,158,0.9,0.9,92,0.00,,BKN015,0.00,VWS V14.01,2013-05-19 12:02:00,
2013-05-19 05:07:00,57.6,55.3,29.47,SSE,158,0.9,0.9,92,0.00,,BKN015,0.00,VWS V14.01,2013-05-19 12:07:00,
2013-05-19 05:12:00,57.7,55.4,29.47,SSE,158,0.9,0.9,92,0.00,,BKN015,0.00,VWS V14.01,2013-05-19 12:12:00,
2013-05-19 05:17:00,57.7,55.4,29.44,SSE,158,0.9,0.9,92,0.00,,BKN015,0.00,VWS V14.01,2013-05-19 12:17:00,
2013-05-19 05:22:00,57.6,55.0,29.44,SSE,158,0.9,0.9,91,0.00,,BKN015,0.00,VWS V14.01,2013-05-19 12:22:00,
2013-05-19 05:27:00,57.6,55.0,29.44,SSE,158,0.9,0.9,91,0.00,,BKN015,0.00,VWS V14.01,2013-05-19 12:27:00,
2013-05-19 05:32:00,57.6,55.0,29.47,SSE,158,0.9,0.9,91,0.00,,BKN015,0.00,VWS V14.01,2013-05-19 12:32:00,
2013-05-19 05:37:00,57.4,54.8,29.47,SSE,158,0.9,0.9,91,0.00,,BKN015,0.00,VWS V14.01,2013-05-19 12:37:00,
2013-05-19 05:42:00,57.4,54.5,29.47,SSE,158,0.9,0.9,90,0.00,,BKN015,0.00,VWS V14.01,2013-05-19 12:42:00,
2013-05-19 05:47:00,57.4,54.5,29.47,SSE,158,0.9,0.9,90,0.00,,BKN015,0.00,VWS V14.01,2013-05-19 12:47:00,
2013-05-19 05:52:00,57.4,54.5,29.47,SSE,158,0.9,0.9,90,0.00,,BKN015,0.00,VWS V14.01,2013-05-19 12:52:00,
2013-05-19 05:57:00,57.4,54.5,29.47,SSE,158,0.9,0.9,90,0.00,,BKN015,0.00,VWS V14.01,2013-05-19 12:57:00,
2013-05-19 06:02:00,57.4,54.5,29.47,SSE,158,0.9,0.9,90,0.00,,BKN015,0.00,VWS V14.01,2013-05-19 13:02:00,
2013-05-19 06:07:00,57.6,55.0,29.47,SSE,158,0.9,0.9,91,0.00,,BKN015,0.00,VWS V14.01,2013-05-19 13:07:00,
2013-05-19 06:12:00,57.6,54.7,29.47,SSE,158,0.9,0.9,90,0.00,,BKN015,0.00,VWS V14.01,2013-05-19 13:12:00,
2013-05-19 06:17:00,57.7,54.8,29.47,SSE,158,0.9,0.9,90,0.00,,BKN015,0.00,VWS V14.01,2013-05-19 13:17:00,
2013-05-19 06:22:00,57.7,54.8,29.47,SSE,158,0.9,0.9,90,0.00,,BKN015,0.00,VWS V14.01,2013-05-19 13:22:00,
2013-05-19 06:27:00,57.9,55.0,29.47,SSE,158,0.9,0.9,90,0.00,,BKN015,0.00,VWS V14.01,2013-05-19 13:27:00,
2013-05-19 06:32:00,58.3,55.4,29.47,SSE,158,0.9,0.9,90,0.00,,BKN015,0.00,VWS V14.01,2013-05-19 13:32:00,
2013-05-19 06:37:00,58.5,55.5,29.47,SSE,158,0.9,0.9,90,0.00,,BKN015,0.00,VWS V14.01,2013-05-19 13:37:00,
2013-05-19 06:42:00,58.6,55.4,29.47,SSE,158,0.9,0.9,89,0.00,,BKN015,0.00,VWS V14.01,2013-05-19 13:42:00,
2013-05-19 06:47:00,58.8,55.6,29.47,SSE,158,0.9,0.9,89,0.00,,BKN015,0.00,VWS V14.01,2013-05-19 13:47:00,
2013-05-19 06:52:00,59.2,55.6,29.47,SSE,158,0.9,0.9,88,0.00,,BKN015,0.00,VWS V14.01,2013-05-19 13:52:00,
2013-05-19 06:57:00,59.4,55.5,29.47,SSE,158,0.9,0.9,87,0.00,,BKN015,0.00,VWS V14.01,2013-05-19 13:57:00,
2013-05-19 07:02:00,59.7,55.5,29.47,SSE,158,0.9,0.9,86,0.00,,BKN017,0.00,VWS V14.01,2013-05-19 14:02:00,
2013-05-19 07:07:00,60.1,55.6,29.47,SSE,158,0.9,0.9,85,0.00,,BKN017,0.00,VWS V14.01,2013-05-19 14:07:00,
2013-05-19 07:12:00,60.4,55.9,29.47,SSE,158,0.9,0.9,85,0.00,,BKN017,0.00,VWS V14.01,2013-05-19 14:12:00,
2013-05-19 07:17:00,61.0,56.1,29.47,SSE,158,0.9,0.9,84,0.00,,BKN017,0.00,VWS V14.01,2013-05-19 14:17:00,
2013-05-19 07:22:00,61.5,56.7,29.47,SSE,158,0.9,0.9,84,0.00,,BKN017,0.00,VWS V14.01,2013-05-19 14:22:00,
2013-05-19 07:27:00,62.1,56.8,29.47,SSE,158,0.9,0.9,83,0.00,,BKN017,0.00,VWS V14.01,2013-05-19 14:27:00,
2013-05-19 07:32:00,62.8,57.2,29.47,SSE,158,0.9,0.9,82,0.00,,BKN017,0.00,VWS V14.01,2013-05-19 14:32:00,
2013-05-19 07:37:00,63.5,57.2,29.47,SSE,158,0.9,0.9,80,0.00,,BKN017,0.00,VWS V14.01,2013-05-19 14:37:00,
2013-05-19 07:42:00,63.9,56.9,29.47,SSE,158,0.9,0.9,78,0.00,,BKN017,0.00,VWS V14.01,2013-05-19 14:42:00,
2013-05-19 07:47:00,64.2,56.9,29.47,SSE,158,0.9,0.9,77,0.00,,BKN017,0.00,VWS V14.01,2013-05-19 14:47:00,
2013-05-19 07:52:00,64.2,55.8,29.47,SSE,158,0.9,0.9,74,0.00,,BKN017,0.00,VWS V14.01,2013-05-19 14:52:00,
2013-05-19 07:57:00,64.6,55.7,29.47,SSE,158,0.9,0.9,73,0.00,,BKN017,0.00,VWS V14.01,2013-05-19 14:57:00,
2013-05-19 08:02:00,64.6,55.4,29.47,SSE,158,0.9,0.9,72,0.00,,OVC017,0.00,VWS V14.01,2013-05-19 15:02:00,
2013-05-19 08:07:00,64.8,55.5,29.47,SSE,158,0.9,0.9,72,0.00,,OVC017,0.00,VWS V14.01,2013-05-19 15:07:00,
2013-05-19 08:12:00,64.8,55.2,29.47,SSE,158,0.9,0.9,71,0.00,,OVC017,0.00,VWS V14.01,2013-05-19 15:12:00,
2013-05-19 08:17:00,65.1,55.9,29.47,SSE,158,0.9,0.9,72,0.00,,OVC017,0.00,VWS V14.01,2013-05-19 15:17:00,
2013-05-19 08:22:00,65.3,55.3,29.47,SSE,158,0.9,0.9,70,0.00,,OVC017,0.00,VWS V14.01,2013-05-19 15:22:00,
2013-05-19 08:27:00,65.7,55.6,29.47,SSE,158,0.9,0.9,70,0.00,,OVC017,0.00,VWS V14.01,2013-05-19 15:27:00,
2013-05-19 08:32:00,66.0,55.6,29.47,SSE,158,0.9,0.9,69,0.00,,OVC017,0.00,VWS V14.01,2013-05-19 15:32:00,
2013-05-19 08:37:00,66.2,54.9,29.47,SSE,158,0.9,0.9,67,0.00,,OVC017,0.00,VWS V14.01,2013-05-19 15:37:00,
2013-05-19 08:42:00,66.7,55.5,29.47,SSE,158,0.9,0.9,67,0.00,,OVC017,0.00,VWS V14.01,2013-05-19 15:42:00,
2013-05-19 08:47:00,67.3,56.0,29.47,SSE,158,0.9,0.9,67,0.00,,OVC017,0.00,VWS V14.01,2013-05-19 15:47:00,
2013-05-19 08:52:00,67.5,55.3,29.47,SSE,158,0.9,0.9,65,0.00,,OVC017,0.00,VWS V14.01,2013-05-19 15:52:00,
2013-05-19 08:57:00,67.6,55.5,29.47,SSE,158,0.9,0.9,65,0.00,,OVC017,0.00,VWS V14.01,2013-05-19 15:57:00,
2013-05-19 09:02:00,68.4,55.7,29.47,SSE,158,0.9,0.9,64,0.00,,OVC019,0.00,VWS V14.01,2013-05-19 16:02:00,
2013-05-19 09:07:00,68.5,55.5,29.47,SSE,158,0.9,0.9,63,0.00,,OVC019,0.00,VWS V14.01,2013-05-19 16:07:00,
2013-05-19 09:12:00,69.1,55.5,29.47,SSE,158,0.9,0.9,62,0.00,,OVC019,0.00,VWS V14.01,2013-05-19 16:12:00,
2013-05-19 09:17:00,70.0,55.9,29.47,SSE,158,0.9,0.9,61,0.00,,OVC019,0.00,VWS V14.01,2013-05-19 16:17:00,
2013-05-19 09:22:00,71.6,57.5,29.47,SSE,158,0.9,0.9,61,0.00,,OVC019,0.00,VWS V14.01,2013-05-19 16:22:00,
2013-05-19 09:27:00,73.2,58.0,29.47,SSE,158,0.9,0.9,59,0.00,,OVC019,0.00,VWS V14.01,2013-05-19 16:27:00,
2013-05-19 09:32:00,74.5,57.8,29.47,SSE,158,0.9,0.9,56,0.00,,OVC019,0.00,VWS V14.01,2013-05-19 16:32:00,
2013-05-19 09:37:00,74.8,55.5,29.47,SSE,158,0.9,0.9,51,0.00,,OVC019,0.00,VWS V14.01,2013-05-19 16:37:00,
2013-05-19 09:42:00,74.7,53.7,29.47,SSE,158,0.9,0.9,48,0.00,,OVC019,0.00,VWS V14.01,2013-05-19 16:42:00,
2013-05-19 09:47:00,75.4,53.2,29.47,SSE,158,0.9,0.9,46,0.00,,OVC019,0.00,VWS V14.01,2013-05-19 16:47:00,
2013-05-19 09:52:00,76.1,54.4,29.47,SSE,158,0.9,0.9,47,0.00,,OVC019,0.00,VWS V14.01,2013-05-19 16:52:00,
2013-05-19 09:57:00,77.0,54.1,29.47,SSE,158,0.9,0.9,45,0.00,,OVC019,0.00,VWS V14.01,2013-05-19 16:57:00,
2013-05-19 10:02:00,77.0,53.4,29.47,SSE,158,0.9,0.9,44,0.00,,BKN021,0.00,VWS V14.01,2013-05-19 17:02:00,
2013-05-19 10:07:00,77.0,52.2,29.47,SSE,158,0.9,0.9,42,0.00,,BKN021,0.00,VWS V14.01,2013-05-19 17:07:00,
2013-05-19 10:12:00,77.7,53.5,29.47,SSE,158,0.9,0.9,43,0.00,,BKN021,0.00,VWS V14.01,2013-05-19 17:12:00,
2013-05-19 10:17:00,77.9,53.0,29.44,SSE,158,0.9,0.9,42,0.00,,SCT021,0.00,VWS V14.01,2013-05-19 17:17:00,
2013-05-19 10:22:00,77.9,53.0,29.44,SSE,158,0.9,0.9,42,0.00,,SCT021,0.00,VWS V14.01,2013-05-19 17:22:00,
2013-05-19 10:27:00,79.3,54.3,29.44,SSE,158,0.9,0.9,42,0.00,,SCT021,0.00,VWS V14.01,2013-05-19 17:27:00,
2013-05-19 10:32:00,79.9,53.4,29.44,SSE,158,0.9,0.9,40,0.00,,SCT021,0.00,VWS V14.01,2013-05-19 17:32:00,
2013-05-19 10:37:00,79.9,53.4,29.44,SSE,158,0.9,0.9,40,0.00,,SCT021,0.00,VWS V14.01,2013-05-19 17:37:00,
2013-05-19 10:42:00,80.6,53.4,29.44,SSE,158,0.9,0.9,39,0.00,,SCT021,0.00,VWS V14.01,2013-05-19 17:42:00,
2013-05-19 10:47:00,80.2,51.6,29.44,SSE,158,0.9,0.9,37,0.00,,SCT021,0.00,VWS V14.01,2013-05-19 17:47:00,
2013-05-19 10:52:00,81.7,54.3,29.44,SSE,158,0.9,0.9,39,0.00,,SCT021,0.00,VWS V14.01,2013-05-19 17:52:00,
2013-05-19 10:57:00,81.9,54.5,29.44,SSE,158,0.9,0.9,39,0.00,,SCT021,0.00,VWS V14.01,2013-05-19 17:57:00,
2013-05-19 11:02:00,81.9,53.8,29.44,SSE,158,0.9,0.9,38,0.00,,FEW023,0.00,VWS V14.01,2013-05-19 18:02:00,
2013-05-19 11:07:00,81.1,52.4,29.44,SSE,158,0.9,0.9,37,0.00,,FEW023,0.00,VWS V14.01,2013-05-19 18:07:00,
2013-05-19 11:12:00,82.4,54.3,29.44,SSE,158,0.9,0.9,38,0.00,,FEW023,0.00,VWS V14.01,2013-05-19 18:12:00,
2013-05-19 11:17:00,82.6,54.4,29.44,SSE,158,0.9,0.9,38,0.00,,FEW023,0.00,VWS V14.01,2013-05-19 18:17:00,
2013-05-19 11:22:00,83.1,53.4,29.44,SSE,158,0.9,0.9,36,0.00,,FEW023,0.00,VWS V14.01,2013-05-19 18:22:00,
2013-05-19 11:27:00,83.1,53.4,29.44,SSE,158,0.9,0.9,36,0.00,,FEW023,0.00,VWS V14.01,2013-05-19 18:27:00,
2013-05-19 11:32:00,81.9,51.5,29.44,SSE,158,0.9,0.9,35,0.00,,FEW023,0.00,VWS V14.01,2013-05-19 18:32:00,
2013-05-19 11:37:00,81.7,52.2,29.44,SSE,158,0.9,0.9,36,0.00,,FEW023,0.00,VWS V14.01,2013-05-19 18:37:00,
2013-05-19 11:42:00,81.1,51.7,29.44,SSE,158,0.9,0.9,36,0.00,,FEW023,0.00,VWS V14.01,2013-05-19 18:42:00,
2013-05-19 11:47:00,81.3,52.6,29.44,SSE,158,0.9,0.9,37,0.00,,FEW023,0.00,VWS V14.01,2013-05-19 18:47:00,
2013-05-19 11:52:00,81.5,52.7,29.44,SSE,158,0.9,0.9,37,0.00,,FEW023,0.00,VWS V14.01,2013-05-19 18:52:00,
2013-05-19 11:57:00,81.7,52.9,29.44,SSE,158,0.9,0.9,37,0.00,,FEW023,0.00,VWS V14.01,2013-05-19 18:57:00,
2013-05-19 12:02:00,82.8,53.9,29.44,SSE,158,0.9,0.9,37,0.00,,FEW025,0.00,VWS V14.01,2013-05-19 19:02:00,
2013-05-19 12:07:00,82.8,53.9,29.44,SSE,158,0.9,0.9,37,0.00,,FEW025,0.00,VWS V14.01,2013-05-19 19:07:00,
2013-05-19 12:12:00,82.9,54.8,29.44,SSE,158,0.9,0.9,38,0.00,,FEW025,0.00,VWS V14.01,2013-05-19 19:12:00,
2013-05-19 12:17:00,82.8,53.1,29.44,SSE,158,0.9,0.9,36,0.00,,FEW025,0.00,VWS V14.01,2013-05-19 19:17:00,
2013-05-19 12:22:00,82.9,53.3,29.44,SSE,158,0.9,0.9,36,0.00,,FEW025,0.00,VWS V14.01,2013-05-19 19:22:00,
2013-05-19 12:27:00,83.1,54.2,29.44,SSE,158,0.9,0.9,37,0.00,,FEW025,0.00,VWS V14.01,2013-05-19 19:27:00,
2013-05-19 12:32:00,82.4,52.8,29.44,SSE,158,0.9,0.9,36,0.00,,FEW025,0.00,VWS V14.01,2013-05-19 19:32:00,
2013-05-19 12:37:00,82.4,52.8,29.44,SSE,158,0.9,0.9,36,0.00,,FEW025,0.00,VWS V14.01,2013-05-19 19:37:00,
2013-05-19 12:42:00,82.9,53.3,29.44,SSE,158,0.9,0.9,36,0.00,,FEW025,0.00,VWS V14.01,2013-05-19 19:42:00,
2013-05-19 12:47:00,82.4,52.8,29.44,SSE,158,0.9,0.9,36,0.00,,FEW025,0.00,VWS V14.01,2013-05-19 19:47:00,
2013-05-19 12:52:00,82.6,53.0,29.44,SSE,158,0.9,0.9,36,0.00,,FEW025,0.00,VWS V14.01,2013-05-19 19:52:00,
2013-05-19 12:57:00,81.7,52.2,29.44,SSE,158,0.9,0.9,36,0.00,,FEW025,0.00,VWS V14.01,2013-05-19 19:57:00,
2013-05-19 13:02:00,81.5,52.0,29.44,SSE,158,0.9,0.9,36,0.00,,FEW023,0.00,VWS V14.01,2013-05-19 20:02:00,
2013-05-19 13:07:00,81.0,52.3,29.44,SSE,158,0.9,0.9,37,0.00,,FEW023,0.00,VWS V14.01,2013-05-19 20:07:00,
2013-05-19 13:12:00,81.1,53.2,29.44,SSE,158,0.9,0.9,38,0.00,,FEW023,0.00,VWS V14.01,2013-05-19 20:12:00,
2013-05-19 13:17:00,82.0,54.0,29.44,SSE,158,0.9,0.9,38,0.00,,FEW023,0.00,VWS V14.01,2013-05-19 20:17:00,
2013-05-19 13:22:00,81.5,53.5,29.44,SSE,158,0.9,0.9,38,0.00,,FEW023,0.00,VWS V14.01,2013-05-19 20:22:00,
2013-05-19 13:27:00,83.1,55.6,29.44,SSE,158,0.9,0.9,39,0.00,,FEW023,0.00,VWS V14.01,2013-05-19 20:27:00,
2013-05-19 13:32:00,83.3,53.6,29.41,SSE,158,0.9,0.9,36,0.00,,FEW023,0.00,VWS V14.01,2013-05-19 20:32:00,
2013-05-19 13:37:00,83.5,54.5,29.41,SSE,158,0.9,0.9,37,0.00,,FEW023,0.00,VWS V14.01,2013-05-19 20:37:00,
2013-05-19 13:42:00,82.8,53.1,29.41,SSE,158,0.9,0.9,36,0.00,,FEW023,0.00,VWS V14.01,2013-05-19 20:42:00,
2013-05-19 13:47:00,84.4,54.5,29.41,SSE,158,0.9,0.9,36,0.00,,FEW023,0.00,VWS V14.01,2013-05-19 20:47:00,
2013-05-19 13:52:00,84.0,54.2,29.41,SSE,158,0.9,0.9,36,0.00,,FEW023,0.00,VWS V14.01,2013-05-19 20:52:00,
2013-05-19 13:57:00,84.0,54.2,29.41,SSE,158,0.9,0.9,36,0.00,,FEW023,0.00,VWS V14.01,2013-05-19 20:57:00,
2013-05-19 14:02:00,84.9,54.2,29.41,SSE,158,0.9,0.9,35,0.00,,CLR,0.00,VWS V14.01,2013-05-19 21:02:00,
2013-05-19 14:07:00,84.6,53.1,29.41,SSE,158,0.9,0.9,34,0.00,,CLR,0.00,VWS V14.01,2013-05-19 21:07:00,
2013-05-19 14:12:00,85.1,53.6,29.41,SSE,158,0.9,0.9,34,0.00,,CLR,0.00,VWS V14.01,2013-05-19 21:12:00,
2013-05-19 14:17:00,85.1,53.6,29.41,SSE,158,0.9,0.9,34,0.00,,CLR,0.00,VWS V14.01,2013-05-19 21:17:00,
2013-05-19 14:22:00,85.6,53.3,29.41,SSE,158,0.9,0.9,33,0.00,,CLR,0.00,VWS V14.01,2013-05-19 21:22:00,
2013-05-19 14:27:00,85.5,52.3,29.41,SSE,158,0.9,0.9,32,0.00,,CLR,0.00,VWS V14.01,2013-05-19 21:27:00,
2013-05-19 14:32:00,86.0,53.6,29.41,SSE,158,0.9,0.9,33,0.00,,CLR,0.00,VWS V14.01,2013-05-19 21:32:00,
2013-05-19 14:37:00,84.9,52.6,29.41,SSE,158,0.9,0.9,33,0.00,,CLR,0.00,VWS V14.01,2013-05-19 21:37:00,
2013-05-19 14:42:00,85.8,53.4,29.41,SSE,158,0.9,0.9,33,0.00,,CLR,0.00,VWS V14.01,2013-05-19 21:42:00,
2013-05-19 14:47:00,85.5,52.3,29.41,SSE,158,0.9,0.9,32,0.00,,CLR,0.00,VWS V14.01,2013-05-19 21:47:00,
2013-05-19 14:52:00,84.9,52.6,29.41,SSE,158,0.9,0.9,33,0.00,,CLR,0.00,VWS V14.01,2013-05-19 21:52:00,
2013-05-19 14:57:00,85.6,53.3,29.41,SSE,158,0.9,0.9,33,0.00,,CLR,0.00,VWS V14.01,2013-05-19 21:57:00,
2013-05-19 15:02:00,85.5,53.1,29.38,SSE,158,0.9,0.9,33,0.00,,CLR,0.00,VWS V14.01,2013-05-19 22:02:00,
2013-05-19 15:07:00,85.3,52.1,29.38,SSE,158,0.9,0.9,32,0.00,,CLR,0.00,VWS V14.01,2013-05-19 22:07:00,
2013-05-19 15:12:00,85.6,53.3,29.38,SSE,158,0.9,0.9,33,0.00,,CLR,0.00,VWS V14.01,2013-05-19 22:12:00,
2013-05-19 15:17:00,85.8,53.4,29.38,SSE,158,0.9,0.9,33,0.00,,CLR,0.00,VWS V14.01,2013-05-19 22:17:00,
2013-05-19 15:22:00,86.0,52.7,29.38,SSE,158,0.9,0.9,32,0.00,,CLR,0.00,VWS V14.01,2013-05-19 22:22:00,
2013-05-19 15:27:00,84.7,51.6,29.38,SSE,158,0.9,0.9,32,0.00,,CLR,0.00,VWS V14.01,2013-05-19 22:27:00,
2013-05-19 15:32:00,84.6,51.5,29.38,SSE,158,0.9,0.9,32,0.00,,CLR,0.00,VWS V14.01,2013-05-19 22:32:00,
2013-05-19 15:38:00,84.6,51.5,29.38,SSE,158,0.9,0.9,32,0.00,,CLR,0.00,VWS V14.01,2013-05-19 22:38:00,
2013-05-19 15:43:00,85.3,53.0,29.38,SSE,158,0.9,0.9,33,0.00,,CLR,0.00,VWS V14.01,2013-05-19 22:43:00,
2013-05-19 15:48:00,85.1,52.0,29.38,SSE,158,0.9,0.9,32,0.00,,CLR,0.00,VWS V14.01,2013-05-19 22:48:00,
2013-05-19 15:53:00,85.3,53.0,29.38,SSE,158,0.9,0.9,33,0.00,,CLR,0.00,VWS V14.01,2013-05-19 22:53:00,
2013-05-19 15:58:00,85.6,53.3,29.38,SSE,158,0.9,0.9,33,0.00,,CLR,0.00,VWS V14.01,2013-05-19 22:58:00,
2013-05-19 16:03:00,85.5,53.1,29.38,SSE,158,0.9,0.9,33,0.00,,CLR,0.00,VWS V14.01,2013-05-19 23:03:00,
2013-05-19 16:08:00,85.1,52.0,29.38,SSE,158,0.9,0.9,32,0.00,,CLR,0.00,VWS V14.01,2013-05-19 23:08:00,
2013-05-19 16:13:00,84.4,51.3,29.38,SSE,158,0.9,0.9,32,0.00,,CLR,0.00,VWS V14.01,2013-05-19 23:13:00,
2013-05-19 16:18:00,84.6,51.5,29.38,SSE,158,0.9,0.9,32,0.00,,CLR,0.00,VWS V14.01,2013-05-19 23:18:00,
2013-05-19 16:23:00,84.4,51.3,29.38,SSE,158,0.9,0.9,32,0.00,,CLR,0.00,VWS V14.01,2013-05-19 23:23:00,
2013-05-19 16:28:00,83.3,51.2,29.38,SSE,158,0.9,0.9,33,0.00,,CLR,0.00,VWS V14.01,2013-05-19 23:28:00,
2013-05-19 16:33:00,83.8,51.7,29.38,SSE,158,0.9,0.9,33,0.00,,CLR,0.00,VWS V14.01,2013-05-19 23:33:00,
2013-05-19 16:38:00,84.4,52.2,29.38,SSE,158,0.9,0.9,33,0.00,,CLR,0.00,VWS V14.01,2013-05-19 23:38:00,
2013-05-19 16:43:00,84.4,52.2,29.38,SSE,158,0.9,0.9,33,0.00,,CLR,0.00,VWS V14.01,2013-05-19 23:43:00,
2013-05-19 16:48:00,83.3,51.2,29.35,SSE,158,0.9,0.9,33,0.00,,CLR,0.00,VWS V14.01,2013-05-19 23:48:00,
2013-05-19 16:53:00,83.3,51.2,29.35,SSE,158,0.9,0.9,33,0.00,,CLR,0.00,VWS V14.01,2013-05-19 23:53:00,
2013-05-19 16:58:00,82.8,50.8,29.35,SSE,158,0.9,0.9,33,0.00,,CLR,0.00,VWS V14.01,2013-05-19 23:58:00,
2013-05-19 17:03:00,82.4,50.4,29.38,SSE,158,0.9,0.9,33,0.00,,CLR,0.00,VWS V14.01,2013-05-20 00:03:00,
2013-05-19 17:08:00,81.7,49.8,29.38,SSE,158,0.9,0.9,33,0.00,,CLR,0.00,VWS V14.01,2013-05-20 00:08:00,
2013-05-19 17:13:00,82.9,50.9,29.38,SSE,158,0.9,0.9,33,0.00,,CLR,0.00,VWS V14.01,2013-05-20 00:13:00,
2013-05-19 17:18:00,82.9,51.7,29.38,SSE,158,0.9,0.9,34,0.00,,CLR,0.00,VWS V14.01,2013-05-20 00:18:00,
2013-05-19 17:23:00,81.7,50.6,29.38,SSE,158,0.9,0.9,34,0.00,,CLR,0.00,VWS V14.01,2013-05-20 00:23:00,
2013-05-19 17:28:00,81.5,51.2,29.38,SSE,158,0.9,0.9,35,0.00,,CLR,0.00,VWS V14.01,2013-05-20 00:28:00,
2013-05-19 17:33:00,81.3,51.1,29.38,SSE,158,0.9,0.9,35,0.00,,CLR,0.00,VWS V14.01,2013-05-20 00:33:00,
2013-05-19 17:38:00,81.3,51.8,29.38,SSE,158,0.9,0.9,36,0.00,,CLR,0.00,VWS V14.01,2013-05-20 00:38:00,
2013-05-19 17:43:00,81.0,51.5,29.38,SSE,158,0.9,0.9,36,0.00,,CLR,0.00,VWS V14.01,2013-05-20 00:43:00,
2013-05-19 17:48:00,80.2,51.6,29.38,SSE,158,0.9,0.9,37,0.00,,CLR,0.00,VWS V14.01,2013-05-20 00:48:00,
2013-05-19 17:53:00,80.1,52.2,29.38,SSE,158,0.9,0.9,38,0.00,,CLR,0.00,VWS V14.01,2013-05-20 00:53:00,
2013-05-19 17:58:00,79.3,51.5,29.38,SSE,158,0.9,0.9,38,0.00,,CLR,0.00,VWS V14.01,2013-05-20 00:58:00,
2013-05-19 18:03:00,78.8,51.8,29.38,SSE,158,0.9,0.9,39,0.00,,CLR,0.00,VWS V14.01,2013-05-20 01:03:00,
2013-05-19 18:08:00,77.9,51.7,29.38,SSE,158,0.9,0.9,40,0.00,,CLR,0.00,VWS V14.01,2013-05-20 01:08:00,
2013-05-19 18:13:00,77.9,51.7,29.38,SSE,158,0.9,0.9,40,0.00,,CLR,0.00,VWS V14.01,2013-05-20 01:13:00,
2013-05-19 18:18:00,77.5,52.0,29.38,SSE,158,0.9,0.9,41,0.00,,CLR,0.00,VWS V14.01,2013-05-20 01:18:00,
2013-05-19 18:23:00,77.2,51.7,29.38,SSE,158,0.9,0.9,41,0.00,,CLR,0.00,VWS V14.01,2013-05-20 01:23:00,
2013-05-19 18:28:00,75.7,51.0,29.38,SSE,158,0.9,0.9,42,0.00,,CLR,0.00,VWS V14.01,2013-05-20 01:28:00,
2013-05-19 18:33:00,74.5,51.2,29.35,SSE,158,0.9,0.9,44,0.00,,CLR,0.00,VWS V14.01,2013-05-20 01:33:00,
2013-05-19 18:38:00,74.1,51.4,29.35,SSE,158,0.9,0.9,45,0.00,,CLR,0.00,VWS V14.01,2013-05-20 01:38:00,
2013-05-19 18:43:00,73.4,51.4,29.35,SSE,158,0.9,0.9,46,0.00,,CLR,0.00,VWS V14.01,2013-05-20 01:43:00,
2013-05-19 18:48:00,73.0,51.6,29.38,SSE,158,0.9,0.9,47,0.00,,CLR,0.00,VWS V14.01,2013-05-20 01:48:00,
2013-05-19 18:53:00,72.1,51.4,29.38,SSE,158,0.9,0.9,48,0.00,,CLR,0.00,VWS V14.01,2013-05-20 01:53:00,
2013-05-19 18:58:00,71.2,51.1,29.38,SSE,158,0.9,0.9,49,0.00,,CLR,0.00,VWS V14.01,2013-05-20 01:58:00,
2013-05-19 19:03:00,70.7,51.7,29.38,SSE,158,0.9,0.9,51,0.00,,CLR,0.00,VWS V14.01,2013-05-20 02:03:00,
2013-05-19 19:08:00,70.3,51.9,29.38,SSE,158,0.9,0.9,52,0.00,,CLR,0.00,VWS V14.01,2013-05-20 02:08:00,
2013-05-19 19:13:00,69.8,51.9,29.38,SSE,158,0.9,0.9,53,0.00,,CLR,0.00,VWS V14.01,2013-05-20 02:13:00,
2013-05-19 19:18:00,69.3,51.9,29.38,SSE,158,0.9,0.9,54,0.00,,CLR,0.00,VWS V14.01,2013-05-20 02:18:00,
2013-05-19 19:23:00,68.9,52.1,29.38,SSE,158,0.9,0.9,55,0.00,,CLR,0.00,VWS V14.01,2013-05-20 02:23:00,
2013-05-19 19:28:00,68.5,52.2,29.38,SSE,158,0.9,0.9,56,0.00,,CLR,0.00,VWS V14.01,2013-05-20 02:28:00,
2013-05-19 19:33:00,68.2,52.9,29.38,SSE,158,0.9,0.9,58,0.00,,CLR,0.00,VWS V14.01,2013-05-20 02:33:00,
2013-05-19 19:38:00,67.6,53.7,29.38,SSE,158,0.9,0.9,61,0.00,,CLR,0.00,VWS V14.01,2013-05-20 02:38:00,
2013-05-19 19:43:00,67.1,53.7,29.38,SSE,158,0.9,0.9,62,0.00,,CLR,0.00,VWS V14.01,2013-05-20 02:43:00,
2013-05-19 19:48:00,66.7,53.3,29.38,SSE,158,0.9,0.9,62,0.00,,CLR,0.00,VWS V14.01,2013-05-20 02:48:00,
2013-05-19 19:53:00,66.2,53.7,29.38,SSE,158,0.9,0.9,64,0.00,,CLR,0.00,VWS V14.01,2013-05-20 02:53:00,
2013-05-19 19:58:00,65.7,53.6,29.38,SSE,158,0.9,0.9,65,0.00,,CLR,0.00,VWS V14.01,2013-05-20 02:58:00,
2013-05-19 20:03:00,65.5,53.4,29.38,SSE,158,0.9,0.9,65,0.00,,CLR,0.00,VWS V14.01,2013-05-20 03:03:00,
2013-05-19 20:08:00,65.1,53.9,29.38,SSE,158,0.9,0.9,67,0.00,,CLR,0.00,VWS V14.01,2013-05-20 03:08:00,
2013-05-19 20:13:00,64.9,53.3,29.38,SSE,158,0.9,0.9,66,0.00,,CLR,0.00,VWS V14.01,2013-05-20 03:13:00,
2013-05-19 20:18:00,64.6,53.4,29.38,SSE,158,0.9,0.9,67,0.00,,CLR,0.00,VWS V14.01,2013-05-20 03:18:00,
2013-05-19 20:23:00,64.2,53.5,29.38,SSE,158,0.9,0.9,68,0.00,,CLR,0.00,VWS V14.01,2013-05-20 03:23:00,
2013-05-19 20:28:00,64.0,53.3,29.38,SSE,158,0.9,0.9,68,0.00,,CLR,0.00,VWS V14.01,2013-05-20 03:28:00,
2013-05-19 20:33:00,63.9,53.9,29.35,SSE,158,0.9,0.9,70,0.00,,CLR,0.00,VWS V14.01,2013-05-20 03:33:00,
2013-05-19 20:38:00,63.5,53.5,29.35,SSE,158,0.9,0.9,70,0.00,,CLR,0.00,VWS V14.01,2013-05-20 03:38:00,
2013-05-19 20:43:00,63.3,53.4,29.35,SSE,158,0.9,0.9,70,0.00,,CLR,0.00,VWS V14.01,2013-05-20 03:43:00,
2013-05-19 20:48:00,63.3,53.8,29.38,SSE,158,0.9,0.9,71,0.00,,CLR,0.00,VWS V14.01,2013-05-20 03:48:00,
2013-05-19 20:53:00,63.1,53.6,29.38,SSE,158,0.9,0.9,71,0.00,,CLR,0.00,VWS V14.01,2013-05-20 03:53:00,
2013-05-19 20:58:00,63.0,53.8,29.38,SSE,158,0.9,0.9,72,0.00,,CLR,0.00,VWS V14.01,2013-05-20 03:58:00,
2013-05-19 21:01:00,63.0,53.8,29.38,SSE,158,0.9,0.9,72,0.00,,CLR,0.00,VWS V14.01,2013-05-20 04:01:00,
2013-05-19 21:06:00,62.8,53.6,29.38,SSE,158,0.9,0.9,72,0.00,,CLR,0.00,VWS V14.01,2013-05-20 04:06:00,
2013-05-19 21:11:00,62.6,53.5,29.38,SSE,158,0.9,0.9,72,0.00,,CLR,0.00,VWS V14.01,2013-05-20 04:11:00,
2013-05-19 21:16:00,62.4,53.7,29.38,SSE,158,0.9,0.9,73,0.00,,CLR,0.00,VWS V14.01,2013-05-20 04:16:00,
2013-05-19 21:21:00,62.2,53.5,29.38,SSE,158,0.9,0.9,73,0.00,,CLR,0.00,VWS V14.01,2013-05-20 04:21:00,
2013-05-19 21:26:00,62.2,53.9,29.38,SSE,158,0.9,0.9,74,0.00,,CLR,0.00,VWS V14.01,2013-05-20 04:26:00,
2013-05-19 21:31:00,62.2,54.2,29.38,SSE,158,0.9,0.9,75,0.00,,CLR,0.00,VWS V14.01,2013-05-20 04:31:00,
2013-05-19 21:36:00,61.9,53.9,29.38,SSE,158,0.9,0.9,75,0.00,,CLR,0.00,VWS V14.01,2013-05-20 04:36:00,
2013-05-19 21:41:00,61.9,53.9,29.38,SSE,158,0.9,0.9,75,0.00,,CLR,0.00,VWS V14.01,2013-05-20 04:41:00,
2013-05-19 21:46:00,61.7,53.7,29.38,SSE,158,0.9,0.9,75,0.00,,CLR,0.00,VWS V14.01,2013-05-20 04:46:00,
2013-05-19 21:51:00,61.7,54.8,29.38,SSE,158,0.9,0.9,78,0.00,,CLR,0.00,VWS V14.01,2013-05-20 04:51:00,
2013-05-19 21:56:00,61.5,54.2,29.38,SSE,158,0.9,0.9,77,0.00,,CLR,0.00,VWS V14.01,2013-05-20 04:56:00,
2013-05-19 22:01:00,61.5,54.6,29.38,SSE,158,0.9,0.9,78,0.00,,CLR,0.00,VWS V14.01,2013-05-20 05:01:00,
2013-05-19 22:06:00,61.5,54.6,29.38,SSE,158,0.9,0.9,78,0.00,,CLR,0.00,VWS V14.01,2013-05-20 05:06:00,
2013-05-19 22:11:00,61.3,54.8,29.38,SSE,158,0.9,0.9,79,0.00,,CLR,0.00,VWS V14.01,2013-05-20 05:11:00,
2013-05-19 22:16:00,61.2,54.6,29.38,SSE,158,0.9,0.9,79,0.00,,CLR,0.00,VWS V14.01,2013-05-20 05:16:00,
2013-05-19 22:21:00,61.2,55.0,29.38,SSE,158,0.9,0.9,80,0.00,,CLR,0.00,VWS V14.01,2013-05-20 05:21:00,
2013-05-19 22:26:00,61.0,54.8,29.38,SSE,158,0.9,0.9,80,0.00,,CLR,0.00,VWS V14.01,2013-05-20 05:26:00,
2013-05-19 22:31:00,60.8,54.6,29.41,SSE,158,0.9,0.9,80,0.00,,CLR,0.00,VWS V14.01,2013-05-20 05:31:00,
2013-05-19 22:36:00,60.8,54.6,29.41,SSE,158,0.9,0.9,80,0.00,,CLR,0.00,VWS V14.01,2013-05-20 05:36:00,
2013-05-19 22:41:00,60.6,54.8,29.41,SSE,158,0.9,0.9,81,0.00,,CLR,0.00,VWS V14.01,2013-05-20 05:41:00,
2013-05-19 22:46:00,60.6,55.1,29.41,SSE,158,0.9,0.9,82,0.00,,CLR,0.00,VWS V14.01,2013-05-20 05:46:00,
2013-05-19 22:51:00,60.4,54.9,29.41,SSE,158,0.9,0.9,82,0.00,,CLR,0.00,VWS V14.01,2013-05-20 05:51:00,
2013-05-19 22:56:00,60.4,54.9,29.41,SSE,158,0.9,0.9,82,0.00,,CLR,0.00,VWS V14.01,2013-05-20 05:56:00,
2013-05-19 23:01:00,60.3,54.8,29.41,SSE,158,0.9,0.9,82,0.00,,CLR,0.00,VWS V14.01,2013-05-20 06:01:00,
2013-05-19 23:06:00,60.1,54.6,29.41,SSE,158,0.9,0.9,82,0.00,,CLR,0.00,VWS V14.01,2013-05-20 06:06:00,
2013-05-19 23:11:00,60.1,54.9,29.41,SSE,158,0.9,0.9,83,0.00,,CLR,0.00,VWS V14.01,2013-05-20 06:11:00,
2013-05-19 23:16:00,60.1,54.9,29.38,SSE,158,0.9,0.9,83,0.00,,CLR,0.00,VWS V14.01,2013-05-20 06:16:00,
2013-05-19 23:21:00,59.9,54.7,29.38,SSE,158,0.9,0.9,83,0.00,,CLR,0.00,VWS V14.01,2013-05-20 06:21:00,
2013-05-19 23:26:00,59.7,54.6,29.38,SSE,158,0.9,0.9,83,0.00,,CLR,0.00,VWS V14.01,2013-05-20 06:26:00,
2013-05-19 23:32:00,59.7,54.6,29.41,SSE,158,0.9,0.9,83,0.00,,CLR,0.00,VWS V14.01,2013-05-20 06:32:00,
2013-05-19 23:37:00,59.7,54.9,29.41,SSE,158,0.9,0.9,84,0.00,,CLR,0.00,VWS V14.01,2013-05-20 06:37:00,
2013-05-19 23:42:00,59.5,54.7,29.41,SSE,158,0.9,0.9,84,0.00,,CLR,0.00,VWS V14.01,2013-05-20 06:42:00,
2013-05-19 23:47:00,59.5,54.7,29.41,SSE,158,0.9,0.9,84,0.00,,CLR,0.00,VWS V14.01,2013-05-20 06:47:00,
2013-05-19 23:52:00,59.4,54.5,29.41,SSE,158,0.9,0.9,84,0.00,,CLR,0.00,VWS V14.01,2013-05-20 06:52:00,
2013-05-19 23:57:00,59.2,54.4,29.41,SSE,158,0.9,0.9,84,0.00,,CLR,0.00,VWS V14.01,2013-05-20 06:57:00,